This demonstration page uses our WeatherBlox Daily Observations layout. Learn more.

40.92945, -100.16068

Hourly Observations for July 17, 2015

Temp ( °F °C ) Dew Point ( °F °C ) Humidity (%) Winds ( mph kmh ) Pressure ( in mb ) Visibility ( mi km ) Precip ( " mm )
12:15 am 00:15 Clear 68 20 64 17.7 87 87 Calm 29.77 1008 10 16.0934 N/A
12:35 am 00:35 Clear 67 19.5 64 17.9 91 91 Calm 29.77 1008 10 16.0934 N/A
12:55 am 00:55 Clear 67 19.3 64 17.9 92 92 Calm 29.77 1008 10 16.0934 N/A
1:15 am 01:15 Clear 66 19.1 64 17.6 91 91 Calm 29.74 1007 10 16.0934 N/A
1:35 am 01:35 Clear 66 19 64 17.5 91 91 Calm 29.74 1007 10 16.0934 N/A
1:55 am 01:55 Clear 66 18.7 63 17.3 92 92 Calm 29.74 1007 10 16.0934 N/A
2:15 am 02:15 Clear 66 18.7 63 17.4 92 92 Calm 29.74 1007 10 16.0934 N/A
2:35 am 02:35 Clear 65 18.4 63 17 92 92 Calm 29.77 1008 10 16.0934 N/A
2:55 am 02:55 Clear 65 18.2 63 17 93 93 Calm 29.77 1008 10 16.0934 N/A
3:15 am 03:15 Clear 65 18.1 63 17 93 93 Calm 29.77 1008 10 16.0934 N/A
3:35 am 03:35 Clear 64 18 62 16.8 93 93 ENE 5 7 29.77 1008 10 16.0934 N/A
3:55 am 03:55 Clear 64 18 62 16.9 93 93 ESE 3 6 29.77 1008 10 16.0934 N/A
4:15 am 04:15 Clear 65 18.1 62 16.7 92 92 SE 3 6 29.77 1008 10 16.0934 N/A
4:35 am 04:35 Clear 65 18.3 62 16.8 91 91 SSE 5 7 29.77 1008 10 16.0934 N/A
4:55 am 04:55 Clear 66 18.9 62 16.9 88 88 Calm 29.71 1006 10 16.0934 N/A
5:15 am 05:15 Clear 67 19.6 62 16.9 85 85 SE 3 6 29.71 1006 10 16.0934 N/A
5:35 am 05:35 Clear 65 18.5 62 16.8 90 90 ESE 3 6 29.71 1006 10 16.0934 N/A
5:55 am 05:55 Clear 65 18.5 63 17 91 91 S 5 7 29.74 1007 10 16.0934 N/A
6:15 am 06:15 Clear 67 19.3 62 16.6 84 84 SW 5 7 29.74 1007 10 16.0934 N/A
6:35 am 06:35 Sunny 67 19.6 62 16.6 83 83 Calm 29.74 1007 10 16.0934 N/A
6:55 am 06:55 Sunny 68 19.9 62 16.6 81 81 W 3 6 29.74 1007 10 16.0934 N/A
7:15 am 07:15 Sunny 68 20.1 64 17.6 86 86 Calm 29.74 1007 10 16.0934 N/A
7:35 am 07:35 Sunny 71 21.7 65 18.6 83 83 Calm 29.71 1006 10 16.0934 N/A
7:55 am 07:55 Sunny 72 22.4 66 18.8 80 80 Calm 29.71 1006 10 16.0934 N/A
8:15 am 08:15 Sunny 74 23.2 65 18.6 75 75 Calm 29.71 1006 10 16.0934 N/A
8:35 am 08:35 Sunny 75 23.9 67 19.2 75 75 Calm 29.71 1006 10 16.0934 N/A
8:55 am 08:55 Sunny 76 24.7 67 19.2 72 72 W 5 7 29.71 1006 10 16.0934 N/A
9:15 am 09:15 Sunny 77 25.1 67 19.2 70 70 NW 3 6 29.71 1006 10 16.0934 N/A
9:35 am 09:35 Sunny 78 25.6 66 19 67 67 SSW 3 6 29.68 1005 10 16.0934 N/A
9:55 am 09:55 Sunny 80 26.7 68 19.9 66 66 Calm 29.68 1005 10 16.0934 N/A
10:15 am 10:15 Sunny 82 27.5 68 20 64 64 SSW 6 9 29.68 1005 10 16.0934 N/A
10:35 am 10:35 Sunny 84 28.7 69 20.6 62 62 S 5 7 29.65 1004 10 16.0934 N/A
10:55 am 10:55 Sunny 85 29.7 69 20.3 57 57 SW 3 6 29.65 1004 10 16.0934 N/A
11:15 am 11:15 Sunny 87 30.7 67 19.7 52 52 SW 3 6 29.65 1004 10 16.0934 N/A
11:35 am 11:35 Sunny 89 31.8 66 19 47 47 SSW 7 11 29.65 1004 10 16.0934 N/A
11:55 am 11:55 Sunny 91 32.7 65 18.4 43 43 SW 9 15 29.62 1003 10 16.0934 N/A
12:15 pm 12:15 Sunny 91 32.9 65 18.5 42 42 SW 9 15 29.62 1003 10 16.0934 N/A
12:35 pm 12:35 Sunny 92 33.6 66 19.1 42 42 WSW 5 7 29.59 1002 10 16.0934 N/A
12:55 pm 12:55 Sunny 92 33.6 65 18.3 40 40 SW 9 15 29.59 1002 10 16.0934 N/A
1:15 pm 13:15 Sunny 93 34 66 18.7 40 40 SSW 10 17 29.59 1002 10 16.0934 N/A
1:35 pm 13:35 Sunny 94 34.3 65 18.5 39 39 S 12 19 29.59 1002 10 16.0934 N/A
1:55 pm 13:55 Sunny 94 34.6 67 19.2 40 40 SSW 9 15 29.59 1002 10 16.0934 N/A
2:15 pm 14:15 Sunny 95 35 67 19.5 40 40 SSW 7 11 29.59 1002 10 16.0934 N/A
2:35 pm 14:35 Sunny 95 35 68 19.9 41 41 SSW 8 13 29.56 1001 10 16.0934 N/A
2:55 pm 14:55 Sunny 95 35.1 66 18.7 38 38 S 9 15 29.56 1001 10 16.0934 N/A
3:15 pm 15:15 Sunny 96 35.8 64 18 35 35 S 9 15 29.53 1000 10 16.0934 N/A
3:35 pm 15:35 Sunny 96 35.5 70 20.9 43 43 SSE 12 19 29.53 1000 10 16.0934 N/A
3:55 pm 15:55 Sunny 96 35.5 71 21.5 44 44 SE 13 20 29.53 1000 10 16.0934 N/A
4:15 pm 16:15 Sunny 96 35.8 67 19.3 38 38 SSE 14 22 29.5 999 10 16.0934 N/A
4:35 pm 16:35 Sunny 96 35.8 67 19.4 38 38 SSE 17 28 29.5 999 10 16.0934 N/A
4:55 pm 16:55 Sunny 95 34.9 68 20.2 42 42 SSE 12 19 29.53 1000 10 16.0934 N/A
5:15 pm 17:15 Sunny 95 35 66 19 39 39 SSE 13 20 29.53 1000 10 16.0934 N/A
5:35 pm 17:35 Sunny 92 33.6 65 18.4 40 40 SE 12 19 29.53 1000 10 16.0934 N/A
5:55 pm 17:55 Sunny 91 33 69 20.3 47 47 SE 8 13 29.5 999 10 16.0934 N/A
6:15 pm 18:15 Sunny 90 32.1 68 20.1 49 49 SSE 8 13 29.5 999 10 16.0934 N/A
6:35 pm 18:35 Sunny 93 33.9 54 12 26 26 SSW 32 52 29.5 999 10 16.0934 N/A
6:55 pm 18:55 Sunny 87 30.4 63 17.2 45 45 S 10 17 29.53 1000 10 16.0934 N/A
7:15 pm 19:15 Sunny 83 28.6 68 19.8 59 59 SSE 9 15 29.53 1000 10 16.0934 N/A
7:35 pm 19:35 Sunny 84 29.1 68 20 58 58 SSE 9 15 29.53 1000 10 16.0934 N/A
7:55 pm 19:55 Partly Cloudy with Light Rain 85 29.6 71 21.4 61 61 S 12 19 29.53 1000 10 16.0934 N/A
8:15 pm 20:15 Partly Cloudy with Light Rain 82 27.5 64 17.7 55 55 SE 13 20 29.53 1000 7 11.26538 0.03 0.762
8:35 pm 20:35 Partly Cloudy 83 28.5 71 21.5 66 66 SE 9 15 29.53 1000 10 16.0934 0.03 0.762
8:55 pm 20:55 Partly Cloudy 84 29.1 70 21.1 62 62 SSE 21 33 29.53 1000 10 16.0934 0.03 0.762
9:15 pm 21:15 Partly Cloudy with Nearby Thunderstorms 84 29 70 21 62 62 S 8 13 29.53 1000 10 16.0934 N/A
9:35 pm 21:35 Clear 79 25.9 66 18.9 65 65 ENE 5 7 29.56 1001 10 16.0934 N/A
9:55 pm 21:55 Clear 77 24.8 67 19.2 71 71 ENE 8 13 29.59 1002 10 16.0934 0 0
10:15 pm 22:15 Clear with Nearby Thunderstorms 76 24.6 67 19.7 74 74 NNE 7 11 29.62 1003 10 16.0934 N/A
10:35 pm 22:35 Mostly Cloudy with Nearby Thunderstorms 72 22.2 64 17.7 76 76 NNE 21 33 29.68 1005 10 16.0934 N/A
10:55 pm 22:55 Mostly Cloudy 72 22 63 17 73 73 NNE 18 30 29.71 1006 10 16.0934 N/A
11:15 pm 23:15 Partly Cloudy 72 22 62 16.6 72 72 NE 15 24 29.71 1006 10 16.0934 N/A
11:35 pm 23:35 Clear with Nearby Thunderstorms 71 21.4 61 16.2 72 72 NE 17 28 29.74 1007 10 16.0934 N/A
11:55 pm 23:55 Clear 69 20.5 62 16.7 79 79 ENE 21 33 29.74 1007 10 16.0934 N/A

Powered by AerisWeather